Home > Weather > Kolkata > Past weeks

Flag for India Weather for the Past 2 Weeks in Kolkata, West Bengal, India

Now
86 °F

Scattered clouds.


Feels Like: 89 °F
Forecast: 71 / 86 °F
Wind: 6 mph from West

Location: Calcutta / Dum Dum

Current Time: Feb 11, 2016 at 3:04:48 PM

Latest Report: Feb 11, 2016 at 2:30 PM


Visibility: 2 mi

Pressure: 29.80 "Hg

Humidity: 55%

Dew point: 68 °F

Location of KolkataLocation

Historic Weather in Kolkata — Graph

°F

Kolkata Temperature Yesterday

Maximum temperature yesterday: 82 °F (at 1:00 PM)
Minimum temperature yesterday: 64 °F (at 5:00 AM)
Average temperature yesterday: 73 °F

High & Low Weather Summary for the Past Weeks

 TemperatureHumidityPressure
High86 °F (Jan 31, 2:30 PM)100% (Jan 31, 1:30 AM)30.07 "Hg (Jan 31, 1:30 AM)
Low59 °F (Jan 30, 5:00 AM)27% (Feb 1, 1:00 PM)29.80 "Hg (Feb 11, 1:30 PM)
Average72 °F72%29.93 "Hg
* Reported Jan 27 1:30 PM — Feb 11 1:30 PM, Kolkata, Weather by CustomWeather, © 2016

Note: Actual official high and low records may vary slightly from our data, if they occured in-between our weather recording intervals... More about our weather records

Advertising

Kolkata Weather History for the Previous 24 Hours

 ConditionsComfort  
Time TempWeatherWind HumidityBarometerVisibility
1:30 PM
Thu, Feb 11
86 °FScattered clouds.10 mph52%29.80 "Hg2 mi
1:00 PM84 °FScattered clouds.9 mph58%29.83 "Hg2 mi
12:30 PM84 °FScattered clouds.13 mph70%29.86 "Hg2 mi
12:00 PM84 °FScattered clouds.6 mph70%29.86 "Hg2 mi
11:30 AM82 °FScattered clouds.7 mph74%29.89 "Hg2 mi
11:00 AM81 °FFog.7 mph84%29.89 "Hg2 mi
10:30 AM79 °FFog.5 mph89%29.92 "Hg1 mi
9:30 AM77 °FFog.5 mph89%29.92 "Hg1 mi
9:00 AM73 °FFog.5 mph94%29.92 "Hg1 mi
8:30 AM72 °FFog.3 mph94%29.89 "Hg0 mi
7:30 AM70 °FFog.3 mph94%29.86 "Hg0 mi
7:00 AM70 °FFog.3 mph94%29.86 "Hg0 mi
6:30 AM70 °FFog.No wind94%29.86 "Hg0 mi
6:00 AM70 °FFog.3 mph94%29.86 "Hg1 mi
5:30 AM70 °FFog.No wind94%29.86 "Hg1 mi
4:30 AM70 °FFog.3 mph94%29.83 "Hg1 mi
4:00 AM70 °FFog.6 mph94%29.83 "Hg1 mi
3:30 AM70 °FFog.6 mph94%29.83 "Hg1 mi
2:30 AM70 °FFog.6 mph94%29.83 "Hg1 mi
2:00 AM70 °FFog.6 mph94%29.83 "Hg1 mi
1:30 AM70 °FFog.6 mph94%29.83 "Hg1 mi
1:00 AM70 °FFog.6 mph94%29.86 "Hg1 mi
12:30 AM70 °FFog.3 mph94%29.86 "Hg1 mi
12:00 AM70 °FFog.3 mph94%29.86 "Hg1 mi
11:30 PM
Wed, Feb 10
72 °FFog.5 mph88%29.86 "Hg1 mi
11:00 PM72 °FFog.3 mph88%29.86 "Hg1 mi
10:30 PM72 °FFog.3 mph88%29.86 "Hg1 mi
10:00 PM72 °FFog.3 mph88%29.86 "Hg1 mi
9:30 PM72 °FFog.6 mph88%29.89 "Hg1 mi
9:00 PM72 °FFog.No wind88%29.86 "Hg1 mi
8:30 PM72 °FFog.No wind88%29.86 "Hg1 mi
8:00 PM73 °FHaze.No wind78%29.86 "Hg1 mi
7:30 PM75 °FHaze.No wind74%29.86 "Hg1 mi
7:00 PM75 °FHaze.No wind74%29.83 "Hg1 mi
6:30 PM77 °FHaze.No wind69%29.83 "Hg2 mi
6:00 PM77 °FHaze.6 mph65%29.83 "Hg2 mi
5:30 PM79 °FHaze.5 mph61%29.83 "Hg2 mi
5:00 PM81 °FHaze.3 mph54%29.83 "Hg2 mi
4:30 PM81 °FHaze.5 mph51%29.83 "Hg2 mi
4:00 PM82 °FScattered clouds.6 mph48%29.83 "Hg2 mi
3:30 PM82 °FScattered clouds.3 mph51%29.83 "Hg1 mi
3:00 PM82 °FScattered clouds.5 mph51%29.83 "Hg1 mi
Weather by CustomWeather, © 2016

See weather overviewHow to use our weather pages